Regional Weather Roundup
Issued by NWS

Home | Current Version | Previous Version | Text Only | Print | Product List | Glossary Off
Versions: 1 2 3 4 5 6 7 8 9 10 11 12 13 14 15 16 17 18 19 20 21 22 23 24 25 26 27 28 29 30 31 32 33 34 35 36 37 38 39 40 41 42 43 44 45 46 47 48 49 50

000
ASUS45 KCYS 272010
RWRWY

WYOMING REGIONAL WEATHER ROUNDUP
NATIONAL WEATHER SERVICE CHEYENNE WY
200 PM MDT THU APR 27 2017

NOTE:  "FAIR" INDICATES FEW OR NO CLOUDS BELOW 12,000 FEET
WITH NO SIGNIFICANT WEATHER AND/OR OBSTRUCTIONS TO VISIBILITY.

WYZ001-272100-
YELLOWSTONE NATIONAL PARK

CITY           SKY/WX    TMP DP  RH WIND       PRES   REMARKS
LK YELLOWSTONE   N/A     31  23  72 NW8G18    29.66R WCI  23
W YELLOWSTONE  NOT AVBL

$$
WYZ002>013-054>058-071-098>099-272100-
NORTHERN WYOMING

CITY           SKY/WX    TMP DP  RH WIND       PRES   REMARKS
JACKSON        PTSUNNY   37  25  60 SW8       29.68R WCI  31
CODY           PTSUNNY   46  34  62 N23G30    29.58F
GREYBULL       FAIR      53  35  50 NW28G37   29.52F
WORLAND        CLOUDY    48  36  63 N20G25    29.53S
SHERIDAN       LGT SNOW  34  32  92 NW7       29.61R FOG     WCI  28
BUFFALO        SNOW      35  32  88 N13G23    29.59R VSB 1/4 WCI  26
GILLETTE       MIX PCPN  37  35  92 CALM      29.57S
HULETT         FAIR      41  32  70 E15G21    29.61R
NEWCASTLE      MOCLDY    50  32  50 SE12G18   29.55S

$$
WYZ014>020-022>026-101>103-272100-
CENTRAL WYOMING

CITY           SKY/WX    TMP DP  RH WIND       PRES   REMARKS
BIG PINEY      PTSUNNY   41  21  44 N24G33    29.65R
PINEDALE       MOCLDY    37  27  65 NW31G38   29.63S WCI  25
DUBOIS         CLOUDY    32  27  80 NW21G26   29.59R WCI  20
LANDER         FLURRIES  33  32  96 SW9       29.57S WCI  25
RIVERTON       LGT RAIN  38  34  85 N22G28    29.58R WCI  27
CASPER         LGT RAIN  38  36  92 N9        29.54R WCI  31
DOUGLAS        LGT RAIN  43  38  82 E6        29.50S

$$
WYZ021-027>030-104>119-272100-
SOUTHERN WYOMING

CITY           SKY/WX    TMP DP  RH WIND       PRES   REMARKS
EVANSTON       FAIR      38  25  59 W26G36    29.74F WCI  26
KEMMERER         N/A     36  23  60 W30G39    29.70S WCI  22
FORT BRIDGER   CLOUDY    37  25  62 NW23G31   29.75F WCI  25
ROCK SPRINGS   CLOUDY    40  22  48 W37G45    29.64R WCI  27
DIXON            N/A     44  23  42 W16G28    29.65F
RAWLINS        CLOUDY    44  26  49 W21G26    29.57S
SARATOGA       FAIR      41  27  56 SW20G28   29.60S
LARAMIE        PTSUNNY   41  23  48 W7G17     29.54F
CHEYENNE       FLURRIES  34  32  92 NW6       29.56F WCI  29
TORRINGTON     FAIR      48  40  73 SE13      29.52R
PINE BLUFFS    CLOUDY    45  36  70 E6        29.55R

$$



USA.gov is the U.S. government's official web portal to all federal, state and local government web resources and services.